Location: Hermaringen
(48.5952°N, 10.2585°E)
Time: 17:50:49
(UTC+00:00)

Transit 4A - All Passes

Search period start: 16 February 2026 00:00
Search period end: 26 February 2026 00:00
Orbit: 865 x 976 km, 66.8° (Epoch: 16 February)

Date Brightness Start Highest point End Pass type
(mag) Time Alt. Az. Time Alt. Az. Time Alt. Az.
16 Feb - 01:58:13 10° SE 02:01:12 14° ESE 02:04:14 10° ENE visible
16 Feb - 03:40:38 10° SSW 03:46:29 78° ESE 03:52:31 10° NE visible
16 Feb - 05:28:21 10° W 05:33:27 29° NW 05:38:42 10° NNE visible
16 Feb - 07:18:41 10° NW 07:21:56 15° N 07:25:14 10° NNE daylight
16 Feb - 09:06:59 10° NNW 09:10:55 17° NNE 09:14:55 10° ENE daylight
16 Feb - 10:53:05 10° NNW 10:58:58 42° NE 11:04:57 10° ESE daylight
16 Feb - 12:39:27 10° NW 12:45:27 50° WSW 12:51:31 10° S daylight
17 Feb - 02:05:21 10° SSE 02:09:37 21° ESE 02:13:57 10° ENE visible
17 Feb - 03:49:21 10° SW 03:55:14 78° NW 04:01:20 10° NNE visible
17 Feb - 05:37:49 10° W 05:42:34 24° NNW 05:47:25 10° NNE visible
17 Feb - 07:28:12 10° NNW 07:31:16 14° N 07:34:23 10° NNE daylight
17 Feb - 09:15:45 10° NNW 09:20:10 20° NNE 09:24:39 10° ENE daylight
17 Feb - 11:01:47 10° NNW 11:07:54 55° NE 11:14:07 10° SE daylight
17 Feb - 12:48:26 10° NW 12:54:03 36° WSW 12:59:44 10° S daylight
18 Feb - 02:13:05 10° S 02:18:05 30° ESE 02:23:14 10° NE visible
18 Feb - 03:58:16 10° SW 04:04:04 58° NW 04:10:05 10° NNE visible
18 Feb - 05:47:24 10° WNW 05:51:44 20° NNW 05:56:09 10° NNE visible
18 Feb - 07:37:32 10° NNW 07:40:37 14° N 07:43:44 10° NNE daylight
18 Feb - 09:24:29 10° NNW 09:29:21 23° NNE 09:34:18 10° E daylight
18 Feb - 11:10:31 10° NNW 11:16:45 72° NE 11:23:06 10° SE daylight
18 Feb - 12:57:35 10° NW 13:02:35 26° WSW 13:07:38 10° SSW daylight
19 Feb - 02:21:10 10° S 02:26:38 43° ESE 02:32:17 10° NE visible
19 Feb - 04:07:22 10° WSW 04:12:59 44° NW 04:18:47 10° NNE visible
19 Feb - 05:57:04 10° WNW 06:00:58 17° NNW 06:04:56 10° NNE daylight
19 Feb - 07:46:40 10° NNW 07:49:57 15° N 07:53:16 10° NE daylight
19 Feb - 09:33:11 10° NNW 09:38:29 28° NE 09:43:51 10° E daylight
19 Feb - 11:19:16 10° NW 11:25:33 85° WSW 11:31:55 10° SSE daylight
19 Feb - 13:07:01 10° WNW 13:11:03 18° WSW 13:15:06 10° SW daylight
20 Feb - 00:49:38 10° ESE 00:50:15 10° E 00:50:52 10° E visible
20 Feb - 02:29:31 10° SSW 02:35:16 61° ESE 02:41:13 10° NE visible
20 Feb - 04:16:35 10° WSW 04:21:58 34° NW 04:27:30 10° NNE visible
20 Feb - 06:06:44 10° NW 06:10:15 16° NNW 06:13:49 10° NNE daylight
20 Feb - 07:55:38 10° NNW 07:59:16 16° NNE 08:02:57 10° NE daylight
20 Feb - 09:41:52 10° NNW 09:47:31 35° NE 09:53:17 10° ESE daylight
20 Feb - 11:28:06 10° NW 11:34:16 63° WSW 11:40:32 10° SSE daylight
20 Feb - 13:17:14 10° W 13:19:27 12° W 13:21:40 10° WSW daylight
21 Feb - 00:55:13 10° SE 00:58:36 16° ESE 01:02:03 10° ENE visible
21 Feb - 02:38:05 10° SSW 02:43:58 84° SE 02:50:03 10° NE visible
21 Feb - 04:25:59 10° W 04:31:01 28° NW 04:36:12 10° NNE visible
21 Feb - 06:16:21 10° NW 06:19:34 14° N 06:22:50 10° NNE daylight
21 Feb - 08:04:28 10° NNW 08:08:33 18° NNE 08:12:41 10° ENE daylight
21 Feb - 09:50:34 10° NNW 09:56:31 45° NE 10:02:34 10° ESE daylight
21 Feb - 11:37:00 10° NW 11:42:55 46° WSW 11:48:55 10° S daylight
22 Feb - 01:02:32 10° SSE 01:07:02 23° ESE 01:11:37 10° ENE visible
22 Feb - 02:46:51 10° SW 02:52:44 73° NW 02:58:50 10° NNE visible
22 Feb - 04:35:29 10° W 04:40:09 23° NNW 04:44:55 10° NNE visible
22 Feb - 06:25:49 10° NNW 06:28:54 14° N 06:32:02 10° NNE daylight
22 Feb - 08:13:14 10° NNW 08:17:47 21° NNE 08:22:23 10° ENE daylight
22 Feb - 09:59:15 10° NNW 10:05:26 59° NE 10:11:42 10° SE daylight
22 Feb - 11:46:00 10° NW 11:51:30 33° WSW 11:57:04 10° S daylight
23 Feb - 01:10:22 10° S 01:15:31 33° ESE 01:20:50 10° NE visible
23 Feb - 02:55:49 10° SW 03:01:36 54° NW 03:07:34 10° NNE visible
23 Feb - 04:45:06 10° WNW 04:49:20 19° NNW 04:53:40 10° NNE visible
23 Feb - 06:35:06 10° NNW 06:38:15 14° N 06:41:26 10° NE daylight
23 Feb - 08:21:58 10° NNW 08:26:57 25° NNE 08:32:01 10° E daylight
23 Feb - 10:08:00 10° NNW 10:14:17 78° NE 10:20:39 10° SE daylight
23 Feb - 11:55:13 10° WNW 12:00:02 24° WSW 12:04:53 10° SSW daylight
24 Feb - 01:18:31 10° S 01:24:05 47° ESE 01:29:51 10° NE visible
24 Feb - 03:04:56 10° WSW 03:10:31 41° NW 03:16:17 10° NNE visible
24 Feb - 04:54:46 10° WNW 04:58:35 17° NNW 05:02:29 10° NNE visible
24 Feb - 06:44:12 10° NNW 06:47:36 15° N 06:51:01 10° NE daylight
24 Feb - 08:30:39 10° NNW 08:36:03 30° NE 08:41:33 10° E daylight
24 Feb - 10:16:47 10° NW 10:23:03 80° WSW 10:29:25 10° SSE daylight
24 Feb - 12:04:45 10° WNW 12:08:28 16° WSW 12:12:12 10° SW daylight
24 Feb - 23:45:46 10° ESE 23:47:37 12° E 23:49:31 10° E visible
25 Feb - 01:26:55 10° SSW 01:32:44 66° ESE 01:38:44 10° NE visible
25 Feb - 03:14:12 10° W 03:19:31 33° NW 03:25:00 10° NNE visible
25 Feb - 05:04:25 10° NW 05:07:52 15° NNW 05:11:24 10° NNE visible
25 Feb - 06:53:08 10° NNW 06:56:54 16° NNE 07:00:42 10° NE daylight
25 Feb - 08:39:20 10° NNW 08:45:06 37° NE 08:50:57 10° ESE daylight
25 Feb - 10:25:37 10° NW 10:31:45 59° WSW 10:37:59 10° SSE daylight
25 Feb - 12:15:30 10° W 12:16:50 11° W 12:18:11 10° WSW daylight
25 Feb - 23:52:16 10° SE 23:56:00 18° ESE 23:59:48 10° ENE night (unlit)
